Regional Weather Roundup
Issued by NWS Cleveland, OH

Home | Current Version | Previous Version | Text Only | Print | Product List | Glossary Off
Versions: 1 2 3 4 5 6 7 8 9 10 11 12 13 14 15 16 17 18 19 20 21 22 23 24 25 26 27 28 29 30 31 32 33 34 35 36 37 38 39 40 41 42 43 44 45 46 47 48 49 50

000
ASUS41 KCLE 261910
RWRCLE
OHIO REGIONAL WEATHER ROUNDUP
NATIONAL WEATHER SERVICE CLEVELAND, OH
300 PM EDT TUE MAY 26 2015

NOTE: "FAIR" INDICATES FEW OR NO CLOUDS BELOW 12,000 FEET WITH NO
SIGNIFICANT WEATHER AND/OR OBSTRUCTIONS TO VISIBILITY.

OHZ001>008-015>018-024>027-034-035-043-044-262000-
   NORTHWEST OHIO

CITY           SKY/WX    TMP DP  RH WIND       PRES   REMARKS
DEFIANCE       PTSUNNY   86  61  42 S17G26    29.93F
FINDLAY        PTSUNNY   87  61  41 S21G28    29.96F
TOLEDO EXPRESS PTSUNNY   85  62  46 SW17G29   29.95F
TOLEDO EXEC    PTSUNNY   86  62  44 S14G24    29.96F
LIMA           PTSUNNY   84  63  49 S17G25    29.97F
$$

OHZ009>014-019>023-028>033-038-089-262000-
   NORTHEAST OHIO

CITY           SKY/WX    TMP DP  RH WIND       PRES   REMARKS
CLE-HOPKINS    PTSUNNY   83  65  54 S13G21    30.06F
CLE-LAKEFRONT  PTSUNNY   82  62  50 S20       30.03F
CUY CO. ARPT   MOSUNNY   84  66  54 S12       30.07F
LORAIN-ELYRIA  PTSUNNY   84  63  49 S16       30.03F
ASHTABULA      PTSUNNY   79  64  60 S14       30.09F
AKRON-CANTON   PTSUNNY   83  63  50 SW17G23   30.10F
WOOSTER        MOSUNNY   83  62  49 S12       30.08F
MANSFIELD      PTSUNNY   82  64  54 S18       30.06F
YOUNGSTOWN     CLOUDY    77  64  64 S7        30.11F
$$

OHZ042-051>053-060>062-070>072-077>081-262000-
  SOUTHWEST OHIO

CITY           SKY/WX    TMP DP  RH WIND       PRES   REMARKS
CINC-COVINGTON PTSUNNY   82  69  64 S17G28    30.02F
CINC-LUNKEN    TSTM      72  67  84 S22G46    30.03S
HAMILTON       MOSUNNY   84  68  58 S10       29.99F
DAYTON         PTSUNNY   85  65  51 S15G25    30.00F
WRIGHT-PAT AFB MOSUNNY   86  64  47 S18G25    30.00F
DAYTON GENERAL MOSUNNY   84  67  56 S14G28    30.00F
WILMINGTON     MOSUNNY   80  63  55 S20G29    30.04F
$$

OHZ036-037-039>041-045>050-054>059-063>069-073>076-082>088-262000-
  CENTRAL AND SOUTHEAST OHIO

CITY           SKY/WX    TMP DP  RH WIND       PRES   REMARKS
COLUMBUS       PTSUNNY   84  64  50 S16G28    30.05F
OSU AIRPORT    MOSUNNY   85  63  47 S20G26    30.03F
BOLTON FIELD   PTSUNNY   86  64  48 S17G24    30.04F
RICKENBACK AFB MOSUNNY   83  65  54 S16G24    30.04F
NEWARK         PTSUNNY   83  65  54 S13       30.06F
MARION         PTSUNNY   83  63  50 S17G26    30.02F
LANCASTER      MOSUNNY   86  65  49 S10G24    30.07F
ZANESVILLE     PTSUNNY   81  64  56 S14       30.10F
NEW PHILLY     LGT RAIN  82  65  56 S13       30.11F
$$



USA.gov is the U.S. government's official web portal to all federal, state and local government web resources and services.